Station ULRA2 - 9468333 - Unalakleet, Unalakleet River, AK Image indicating link to RSS feed of recent meteorological observations for station ULRA2


Conditions at ULRA2 as of
(8:48 am AKDT)
1648 GMT on 04/20/2024:
     

Click on the graph icon in the table below to see a time series plot of the last five days of that observation.

5-day plot - Atmospheric Pressure Atmospheric Pressure (PRES):29.94 in
NOS Water Level Observation Network Water Level
Previous observations
TIME
(AKDT)
5-day plot - Wind Direction
WDIR
 
5-day plot - Wind Speed
WSPD
kts
5-day plot - Wind Gust
GST
kts
5-day plot - Wave Height
WVHT
ft
5-day plot - Dominant Wave Period
DPD
sec
5-day plot - Average Wave Period
APD
sec
5-day plot - Mean Wave Direction
MWD
 
5-day plot - Atmospheric Pressure
PRES
in
5-day plot - Pressure Tendency
PTDY
in
5-day plot - Air Temperature
ATMP
°F
5-day plot - Water Temperature
WTMP
°F
5-day plot - Dew Point
DEWP
°F
5-day plot - Salinity
SAL
psu
5-day plot - Visibility
VIS
nmi
5-day plot - Tide (above MLLW)
TIDE
ft
2024-04-20 08:42 am-------29.94-------
2024-04-20 08:36 am-------29.94-------
2024-04-20 08:30 am-------29.94-------
2024-04-20 08:24 am N 1.0 2.9----29.93- 31.6-----
2024-04-20 08:18 am-------29.93-------
2024-04-20 08:12 am-------29.93-------
2024-04-20 08:06 am-------29.93-------
2024-04-20 08:00 am-------29.94-0.02------
2024-04-20 07:54 am-------29.94-------
2024-04-20 07:48 am-------29.93-------
2024-04-20 07:42 am-------29.93-------
2024-04-20 07:36 am-------29.93-------
2024-04-20 07:30 am-------29.93-------
2024-04-20 07:24 am N 1.9 1.9----29.93- 32.0-----
2024-04-20 07:18 am-------29.93-------
2024-04-20 07:12 am-------29.94-------
2024-04-20 07:06 am-------29.94-------
2024-04-20 07:00 am-------29.94-0.02------
2024-04-20 06:54 am-------29.94-------
2024-04-20 06:48 am-------29.94-------
2024-04-20 06:42 am-------29.94-------
2024-04-20 06:36 am-------29.94-------
2024-04-20 06:30 am-------29.94-------
2024-04-20 06:24 am N 1.0 1.9----29.94- 31.3-----
2024-04-20 06:18 am-------29.94-------
2024-04-20 06:12 am-------29.94-------
2024-04-20 06:06 am-------29.94-------
2024-04-20 06:00 am-------29.94-0.02------
2024-04-20 05:54 am-------29.94-------
2024-04-20 05:48 am-------29.94-------
2024-04-20 05:42 am-------29.95-------
2024-04-20 05:36 am-------29.95-------
2024-04-20 05:30 am-------29.95-------
2024-04-20 05:24 am-------29.95-------
2024-04-20 05:18 am-------29.95-------
2024-04-20 05:12 am-------29.95-------
2024-04-20 05:06 am-------29.95-------
2024-04-20 05:00 am-------29.96+0.00------
2024-04-20 04:54 am-------29.96-------
2024-04-20 04:48 am-------29.96-------
2024-04-20 04:42 am-------29.96-------
2024-04-20 04:36 am-------29.96-------
2024-04-20 04:30 am-------29.96-------
2024-04-20 04:24 am-------29.96-------
2024-04-20 04:18 am-------29.96-------
2024-04-20 04:12 am-------29.96-------
2024-04-20 04:06 am-------29.96-------
2024-04-20 04:00 am-------29.96-0.01------
2024-04-20 03:54 am-------29.96-------
2024-04-20 03:48 am-------29.96-------
2024-04-20 03:42 am-------29.96-------
2024-04-20 03:36 am-------29.96-------
2024-04-20 03:30 am-------29.96-------
2024-04-20 03:24 am- 0.0 1.9----29.96- 31.5-----
2024-04-20 03:18 am-------29.96-------
2024-04-20 03:12 am-------29.96-------
2024-04-20 03:06 am-------29.96-------
2024-04-20 03:00 am-------29.97+0.00------
2024-04-20 02:54 am-------29.97-------
2024-04-20 02:48 am-------29.96-------
2024-04-20 02:42 am-------29.96-------
2024-04-20 02:36 am-------29.96-------
2024-04-20 02:30 am-------29.96-------
2024-04-20 02:24 am S 4.1 5.1----29.96-------
2024-04-20 02:18 am-------29.96-------
2024-04-20 02:12 am-------29.96-------
2024-04-20 02:06 am-------29.96-------
2024-04-20 02:00 am-------29.96-0.01------
2024-04-20 01:54 am-------29.96-------
2024-04-20 01:48 am-------29.96-------
2024-04-20 01:42 am-------29.96-------
2024-04-20 01:36 am-------29.96-------
2024-04-20 01:30 am-------29.96-------
2024-04-20 01:24 am SE 2.9 4.1----29.97- 32.4-----
2024-04-20 01:18 am-------29.97-------
2024-04-20 01:12 am-------29.96-------
2024-04-20 01:06 am-------29.97-------
2024-04-20 01:00 am-------29.97-0.01------
2024-04-20 12:54 am-------29.97-------
2024-04-20 12:48 am-------29.97-------
2024-04-20 12:42 am-------29.97-------
2024-04-20 12:36 am-------29.97-------
2024-04-20 12:30 am-------29.97-------
2024-04-20 12:24 amESE 1.9 2.9----29.97-------
2024-04-20 12:18 am-------29.97-------
2024-04-20 12:12 am-------29.97-------
2024-04-20 12:06 am-------29.97-------
2024-04-20 12:00 am-------29.97-0.02------
2024-04-19 11:54 pm-------29.97-------
2024-04-19 11:48 pm-------29.97-------
2024-04-19 11:42 pm-------29.97-------
2024-04-19 11:36 pm-------29.97-------
2024-04-19 11:30 pm-------29.97-------
2024-04-19 11:24 pmESE 2.9 4.1----29.97- 32.9-----
2024-04-19 11:18 pm-------29.97-------
2024-04-19 11:12 pm-------29.97-------
2024-04-19 11:06 pm-------29.97-------
2024-04-19 11:00 pm-------29.98-0.01------
2024-04-19 10:54 pm-------29.98-------
2024-04-19 10:48 pm-------29.98-------
2024-04-19 10:42 pm-------29.98-------
2024-04-19 10:36 pm-------29.98-------
2024-04-19 10:30 pm-------29.98-------
2024-04-19 10:24 pm NW 5.1 5.1----29.98- 35.2-----
2024-04-19 10:18 pm-------29.98-------
2024-04-19 10:12 pm-------29.98-------
2024-04-19 10:06 pm-------29.98-------
2024-04-19 10:00 pm-------29.98-0.03------
2024-04-19 09:54 pm-------29.98-------
2024-04-19 09:48 pm-------29.98-------
2024-04-19 09:42 pm-------29.98-------
2024-04-19 09:36 pm-------29.98-------
2024-04-19 09:30 pm-------29.98-------
2024-04-19 09:24 pmNNW 7.0 8.0----29.98- 34.7-----
2024-04-19 09:18 pm-------29.98-------
2024-04-19 09:12 pm-------29.98-------
2024-04-19 09:06 pm-------29.99-------
2024-04-19 09:00 pm-------29.99-0.04------
2024-04-19 08:54 pm-------29.99-------
2024-04-19 08:48 pm-------29.99-------
2024-04-19 08:42 pm-------29.99-------
2024-04-19 08:36 pm-------29.99-------
2024-04-19 08:30 pm-------29.99-------
2024-04-19 08:24 pmNNW 8.9 11.1----29.99- 35.8-----
2024-04-19 08:18 pm-------29.99-------
2024-04-19 08:12 pm-------29.99-------
2024-04-19 08:06 pm-------29.99-------
2024-04-19 08:00 pm-------29.99-0.05------
2024-04-19 07:54 pm-------29.99-------
2024-04-19 07:48 pm-------29.99-------
2024-04-19 07:42 pm-------29.99-------
2024-04-19 07:36 pm-------30.00-------
2024-04-19 07:30 pm-------30.00-------
2024-04-19 07:24 pm NW 9.9 11.1----30.00- 34.9-----
2024-04-19 07:18 pm-------30.00-------
2024-04-19 07:12 pm-------30.00-------
2024-04-19 07:06 pm-------30.01-------
2024-04-19 07:00 pm-------30.01-0.05------
2024-04-19 06:54 pm-------30.01-------
2024-04-19 06:48 pm-------30.01-------
2024-04-19 06:42 pm-------30.01-------
2024-04-19 06:36 pm-------30.01-------
2024-04-19 06:30 pm-------30.01-------
2024-04-19 06:24 pm NW 11.1 12.0----30.01- 34.3-----
2024-04-19 06:18 pm-------30.02-------
2024-04-19 06:12 pm-------30.02-------
2024-04-19 06:06 pm-------30.02-------
2024-04-19 06:00 pm-------30.02-0.04------
2024-04-19 05:54 pm-------30.03-------
2024-04-19 05:48 pm-------30.03-------
2024-04-19 05:42 pm-------30.03-------
2024-04-19 05:36 pm-------30.03-------
2024-04-19 05:30 pm-------30.03-------
2024-04-19 05:24 pm NW 8.0 8.9----30.03- 35.1-----
2024-04-19 05:18 pm-------30.03-------
2024-04-19 05:12 pm-------30.03-------
2024-04-19 05:06 pm-------30.04-------
2024-04-19 05:00 pm-------30.04-0.04------
2024-04-19 04:54 pm-------30.04-------
2024-04-19 04:48 pm-------30.04-------
2024-04-19 04:42 pm-------30.04-------
2024-04-19 04:36 pm-------30.04-------
2024-04-19 04:30 pm-------30.05-------
2024-04-19 04:24 pmNNW 8.0 9.9----30.05- 35.6-----
2024-04-19 04:18 pm-------30.05-------
2024-04-19 04:12 pm-------30.05-------
2024-04-19 04:06 pm-------30.05-------
2024-04-19 04:00 pm-------30.06-0.03------
2024-04-19 03:54 pm-------30.06-------
2024-04-19 03:48 pm-------30.06-------
2024-04-19 03:42 pm-------30.06-------
2024-04-19 03:36 pm-------30.06-------
2024-04-19 03:30 pm-------30.06-------
2024-04-19 03:24 pm NW 6.0 7.0----30.06- 34.3-----
2024-04-19 03:18 pm-------30.06-------
2024-04-19 03:12 pm-------30.07-------
2024-04-19 03:06 pm-------30.07-------
2024-04-19 03:00 pm-------30.07-0.01------
2024-04-19 02:54 pm-------30.07-------
2024-04-19 02:48 pm-------30.07-------
2024-04-19 02:42 pm-------30.07-------
2024-04-19 02:36 pm-------30.07-------
2024-04-19 02:30 pm-------30.07-------
2024-04-19 02:24 pmNNW 7.0 8.0----30.08- 32.9-----
2024-04-19 02:18 pmNNW 6.0 8.0----30.08- 33.1-----
2024-04-19 02:12 pmNNW 5.1 8.0----30.08- 34.0-----
2024-04-19 02:06 pmNNW 7.0 8.9----30.08- 32.7-----
2024-04-19 02:00 pm-------30.08+0.00------
2024-04-19 01:54 pm-------30.08-------
2024-04-19 01:48 pm-------30.08-------
2024-04-19 01:42 pm-------30.08-------
2024-04-19 01:36 pm-------30.08-------
2024-04-19 01:30 pm-------30.08-------
2024-04-19 01:24 pmNNW 2.9 8.0----30.09- 38.8-----
2024-04-19 01:18 pm-------30.08-------
2024-04-19 01:12 pm-------30.08-------
2024-04-19 01:06 pm-------30.08-------
2024-04-19 01:00 pm-------30.08+0.00------
2024-04-19 12:54 pm-------30.08-------
2024-04-19 12:48 pm-------30.08-------
2024-04-19 12:42 pm-------30.08-------
2024-04-19 12:36 pm-------30.08-------
2024-04-19 12:30 pm-------30.08-------
2024-04-19 12:24 pmESE 5.1 6.0----30.08- 41.5-----
2024-04-19 12:18 pm-------30.08-------
2024-04-19 12:12 pm-------30.08-------
2024-04-19 12:06 pm-------30.08-------
2024-04-19 12:00 pm-------30.08+0.00------
2024-04-19 11:54 am-------30.08-------
2024-04-19 11:48 am-------30.08-------
2024-04-19 11:42 am-------30.08-------
2024-04-19 11:36 am-------30.08-------
2024-04-19 11:30 am-------30.08-------
2024-04-19 11:24 amNNE 1.0 2.9----30.08- 32.9-----
2024-04-19 11:18 am-------30.09-------
2024-04-19 11:12 am-------30.09-------
2024-04-19 11:06 am-------30.09-------
2024-04-19 11:00 am-------30.09+0.01------
2024-04-19 10:54 am-------30.09-------
2024-04-19 10:48 am-------30.09-------
2024-04-19 10:42 am-------30.09-------
2024-04-19 10:36 am-------30.09-------
2024-04-19 10:30 am-------30.09-------
2024-04-19 10:24 amSSE 2.9 6.0----30.08- 31.5-----
2024-04-19 10:18 am-------30.08-------
2024-04-19 10:12 am-------30.08-------
2024-04-19 10:06 am-------30.08-------
2024-04-19 10:00 am-------30.08-0.01------
2024-04-19 09:54 am-------30.08-------
2024-04-19 09:48 am-------30.08-------
2024-04-19 09:42 am-------30.08-------
2024-04-19 09:36 am-------30.08-------
2024-04-19 09:30 am-------30.08-------
2024-04-19 09:24 am S 1.9 5.1----30.08- 30.7-----
2024-04-19 09:18 am-------30.08-------
2024-04-19 09:12 am-------30.08-------
2024-04-19 09:06 am-------30.07-------
2024-04-19 09:00 am-------30.08-0.02------
2024-04-19 08:54 am-------30.07-------